User: anonymous   Login
Location: Bothell
(47.7630°N, 122.2040°W)
Time: 15:04:19
(UTC-08:00)
Language:

Oscar 16 - Orbit

View from above orbital plane
View from above orbital plane
View from above satellite
View from above satellite

Ground track
Ground track

The orbit data is extracted from the following two-line orbital elements,

1 20439U 90005D   18015.89858104 -.00000012 +00000-0 +11977-4 0  9993
2 20439 098.6329 319.0387 0009721 254.2727 146.6344 14.32708143461615
Epoch (UTC): 15 January 2018 21:33:57
Eccentricity: 0.0009721
inclination: 98.6329°
perigee height: 776 km
apogee height: 789 km
right ascension of ascending node: 319.0387°
argument of perigee: 254.2727°
revolutions per day: 14.32708143
mean anomaly at epoch: 146.6344°
orbit number at epoch: 46161

The dashed part of the orbit path shows where the satellite is in the earth's shadow,  

DLR